Temperature
13 13 13 12 12 12 12 12 12 12 12 12 12 12 12 12 12 12 12 12 13 13 13 13 13 13 13 13 13 14 14 14 14 14 15 15 15 15 15 15 16 16 16
13 13 13 12 12 12 12 12 12 12 12 12 12 12 12 12 12 12 12 12 12 13 13 13 13 13 13 13 13 13 13 14 14 14 14 15 15 15 15 15 15 15 15
14 13 13 13 13 12 12 12 12 12 12 12 12 12 12 12 12 12 12 12 12 12 13 13 12 13 13 13 13 13 13 13 13 14 14 14 14 14 14 15 15 15 15
14 14 13 13 13 12 12 12 12 12 12 12 12 12 12 12 12 12 12 12 12 12 12 12 12 12 12 13 13 13 13 13 13 13 13 14 14 14 14 14 14 14 14
14 14 13 13 13 13 12 12 12 12 12 12 12 12 12 12 12 12 12 12 12 12 12 12 12 12 12 12 13 13 13 13 13 13 13 13 14 14 14 14 14 14 14
14 14 14 13 13 13 13 12 12 12 12 12 12 12 12 12 12 12 12 12 12 12 12 12 12 12 12 12 12 12 12 13 13 13 13 13 14 14 14 14 14 14 14
15 14 14 14 13 13 13 13 12 12 12 12 12 12 12 12 12 12 12 12 12 12 12 12 12 12 12 12 12 12 12 12 12 13 13 13 13 14 13 13 13 13 14
15 15 14 14 14 13 13 13 13 13 12 12 12 12 12 12 12 12 12 12 12 12 12 12 12 12 12 12 12 12 12 12 12 12 13 13 13 13 13 13 13 13 13
15 15 15 14 14 14 14 13 13 13 13 13 12 12 12 12 12 12 12 12 12 12 12 12 11 12 11 11 12 12 12 12 12 12 12 13 13 13 13 13 13 13 13
16 15 15 15 14 14 14 14 14 13 13 13 13 13 12 12 12 12 12 12 12 12 12 12 12 12 12 11 11 12 12 12 12 12 12 12 12 13 13 13 13 12 12
16 15 15 15 15 14 14 14 14 14 13 13 13 13 13 12 12 12 12 12 12 12 12 12 12 12 11 11 11 12 12 12 12 12 12 12 12 12 12 12 12 12 12
16 15 15 15 15 15 14 14 14 14 14 14 13 13 13 13 13 12 12 12 12 12 12 12 12 11 11 11 11 11 12 12 12 12 12 12 12 12 12 12 12 12 12
15 15 15 15 15 15 14 14 14 14 14 14 14 14 13 13 13 13 12 12 12 12 12 12 12 11 11 11 11 11 11 11 11 11 12 12 12 12 12 12 12 12 12
15 15 15 15 15 15 14 14 14 14 14 14 14 14 13 13 13 13 13 12 12 12 12 12 12 12 12 11 11 11 11 11 11 11 11 11 11 11 11 11 11 11 11
15 15 15 14 14 14 14 14 14 14 13 13 13 13 13 13 13 13 13 13 12 12 12 12 12 12 12 12 11 11 11 11 11 11 11 11 11 11 11 11 11 11 11
15 14 14 14 14 14 14 14 13 13 13 13 13 13 13 13 13 13 13 13 12 12 12 12 12 11 11 11 11 11 11 11 11 11 11 11 11 11 11 11 11 11 11
14 13 13 13 13 13 13 13 13 13 13 13 13 13 13 13 13 13 13 12 12 12 12 11 11 11 11 11 11 11 11 11 11 11 11 11 11 11 11 11 11 10 10
13 12 12 12 12 12 12 12 12 12 12 12 12 12 12 13 13 13 13 12 12 11 11 11 11 11 11 11 11 11 11 11 11 11 11 11 11 11 11 11 11 10 10
12 11 11 11 11 11 11 11 11 11 11 11 11 11 11 11 12 12 12 11 11 10 10 10 10 10 10 10 11 11 11 11 10 10 10 10 10 10 10 11 11 10 10
11 10 10 10 10 10 10 10 9 9 9 9 9 9 10 10 11 10 10 10 10 9 9 9 9 9 9 10 10 10 10 10 10 10 10 10 10 10 10 10 10 10 10
9 9 9 9 9 8 8 8 8 8 8 8 7 7 8 8 8 8 8 8 8 8 8 8 8 8 8 9 9 9 9 9 9 9 9 9 9 10 10 10 10 10 10
8 8 8 8 7 7 7 7 7 7 6 6 6 6 6 6 6 6 6 6 6 6 6 6 6 6 7 7 7 7 8 8 8 8 8 8 9 9 9 9 9 10 10
8 7 7 7 6 6 6 6 6 6 6 5 5 5 5 5 5 5 5 4 4 5 5 5 5 5 5 5 5 5 6 6 6 7 7 7 8 8 8 8 9 9 9
7 7 6 6 6 6 5 5 5 5 5 5 4 4 4 4 4 4 4 4 4 4 4 4 4 4 4 4 4 4 4 4 5 5 6 6 7 7 7 7 8 8 9
6 6 6 6 5 5 5 5 4 4 4 4 4 4 4 3 3 3 3 3 3 3 3 3 3 3 3 3 3 3 3 3 3 4 4 5 5 6 6 6 7 7 8
6 6 5 5 5 5 4 4 4 4 4 3 3 3 3 3 3 2 2 2 2 2 2 3 2 2 2 3 3 3 3 3 3 3 3 4 4 4 5 5 6 6 6
Wind_Speed
2 1 1 2 3 3 3 3 4 4 5 6 6 6 6 5 5 4 4 4 3 3 3 2 2 2 2 2 2 3 4 4 5 4 2 3 3 4 3 5 7 7 10
3 1 0 1 2 3 3 4 4 4 5 5 5 6 6 6 5 5 5 5 4 4 3 2 3 2 2 2 2 3 3 4 5 5 3 3 4 4 4 5 4 6 7
3 2 0 1 1 2 3 3 4 4 5 5 5 5 5 5 5 5 4 4 4 3 3 2 2 2 2 2 2 3 3 3 3 4 4 3 3 3 3 3 4 4 5
4 3 2 1 1 1 2 3 3 3 4 4 4 4 4 4 4 5 5 5 5 4 4 3 2 2 2 3 3 2 2 3 3 3 3 2 3 3 3 4 4 3 4
5 4 4 3 2 1 2 2 3 3 4 3 4 5 5 4 3 4 4 5 5 5 5 4 3 3 3 2 2 2 2 2 2 3 3 2 3 3 4 3 4 3 3
6 5 4 3 2 2 2 2 2 4 4 3 4 4 5 4 6 6 5 4 4 4 5 5 5 4 5 5 4 2 2 3 3 3 3 4 4 4 4 4 4 3 3
6 5 5 4 3 3 2 2 3 3 3 3 4 4 4 6 7 7 6 4 3 3 3 4 4 4 5 4 5 5 3 4 4 4 4 5 5 5 5 5 5 4 4
5 5 5 5 4 3 3 3 4 3 3 3 4 4 4 6 7 6 6 4 3 4 3 3 3 4 4 4 4 4 4 4 4 3 4 5 5 5 6 6 5 3 1
5 6 6 6 5 4 4 5 4 3 3 4 4 5 5 6 7 6 4 2 3 4 4 4 4 4 6 5 4 4 4 5 4 3 3 4 5 5 5 4 4 4 2
6 6 6 6 6 6 6 5 4 3 4 5 5 5 5 6 7 6 3 1 2 3 4 5 6 6 6 5 3 3 4 5 4 4 3 3 1 2 5 5 6 5 3
6 5 5 5 6 6 5 4 4 4 4 5 6 6 5 6 7 6 4 1 2 2 3 4 5 8 7 7 5 3 5 5 3 2 2 2 1 0 1 2 3 4 4
5 5 5 5 5 4 5 5 4 4 4 5 5 6 5 5 6 6 6 4 3 2 3 4 5 9 9 9 6 5 6 4 2 2 1 2 1 1 1 2 2 3 3
3 4 5 5 5 5 5 5 4 3 3 4 4 5 5 4 5 7 7 6 5 3 4 7 8 10 9 7 7 8 6 2 2 2 2 2 2 2 1 1 1 1 1
2 3 3 4 5 4 4 4 4 4 4 5 5 5 5 4 4 4 3 3 4 3 4 6 8 8 7 7 6 5 3 2 2 3 3 3 2 2 1 2 2 1 1
0 2 3 3 3 4 4 4 5 5 5 5 5 5 5 6 7 7 5 4 3 3 3 3 3 4 5 5 5 5 4 3 3 3 3 3 3 2 2 2 2 2 3
3 3 2 2 3 3 3 4 5 5 7 5 5 5 5 8 9 7 8 7 5 2 1 3 4 5 5 6 6 6 5 4 4 4 4 4 4 4 4 3 3 3 4
4 3 3 3 3 3 3 3 4 6 8 9 10 10 7 7 6 5 4 3 2 1 1 4 5 6 6 6 6 5 5 5 4 4 5 5 5 5 5 5 4 4 5
5 6 5 4 4 4 4 4 3 4 6 7 9 13 14 11 9 7 3 3 3 2 2 4 6 6 6 6 6 6 6 6 5 5 5 5 5 5 5 6 6 6 6
5 4 4 4 5 5 5 5 6 6 6 6 7 10 13 11 12 12 9 6 5 6 5 5 6 6 6 6 6 6 6 6 6 5 5 6 6 5 6 7 6 9 8
5 9 8 6 6 6 6 6 6 6 7 7 8 8 8 10 10 10 9 8 7 7 7 7 7 7 7 7 7 7 6 6 6 5 5 5 5 6 7 8 7 7 7
5 6 10 7 6 6 6 6 6 6 6 7 7 9 11 8 8 8 8 7 7 7 8 8 8 9 9 8 8 8 8 7 7 7 7 6 6 6 6 7 7 8 8
5 5 5 5 5 5 5 5 5 6 6 6 5 6 10 7 6 6 6 7 6 6 6 6 6 7 7 8 8 8 9 9 9 9 8 8 7 7 7 7 7 7 8
5 5 5 5 4 6 6 5 5 5 5 5 5 5 6 5 5 5 5 5 5 5 5 6 6 6 6 6 6 7 8 9 9 10 10 9 8 8 8 8 9 9 9
4 4 4 4 4 4 4 4 4 4 4 4 4 4 5 4 4 5 5 4 5 5 5 5 5 8 9 7 6 6 7 9 10 9 11 11 10 9 8 9 9 10 10
4 3 3 3 3 3 3 3 3 3 3 3 3 4 4 4 4 5 5 5 6 6 7 6 5 6 9 10 9 10 13 15 14 13 10 9 11 11 10 10 10 11 10
3 3 3 2 2 2 2 2 2 2 2 2 3 3 3 4 4 4 5 5 6 6 7 6 8 10 11 11 13 15 17 18 17 17 13 9 10 11 11 10 12 11 12
Wind_Direction
216 236 15 337 340 355 353 341 345 350 356 5 6 11 13 11 8 13 359 359 354 335 336 329 301 282 260 239 223 220 221 212 236 255 232 217 206 203 196 200 204 201 208
206 187 354 349 5 9 351 342 351 357 359 6 14 19 17 13 11 13 3 360 356 343 333 335 315 309 288 273 249 240 233 223 222 243 240 217 216 208 195 195 203 203 202
189 171 119 2 6 353 334 338 352 358 359 7 15 15 10 6 6 5 1 353 348 334 324 316 304 312 298 282 271 252 242 239 222 226 240 224 218 200 187 197 203 203 203
184 180 195 235 248 285 316 335 341 348 355 355 356 355 354 357 359 356 356 354 352 348 342 328 308 304 283 278 274 265 251 241 232 231 233 227 218 202 182 195 204 204 205
182 192 212 222 227 270 325 326 329 343 346 340 344 345 344 345 346 350 349 352 354 354 351 345 325 319 311 302 274 260 251 242 236 232 231 225 216 198 202 192 199 196 206
186 203 212 214 224 254 283 302 324 336 336 337 336 335 338 337 342 348 351 348 346 349 343 337 335 341 348 346 329 292 249 233 231 227 230 230 232 215 200 192 185 184 212
195 207 208 208 219 241 259 288 306 311 316 316 316 325 321 316 328 339 348 354 346 340 339 338 341 348 353 342 341 345 322 289 249 228 229 233 232 216 197 197 195 190 202
198 209 212 209 219 233 246 268 279 283 287 291 296 304 307 311 322 331 341 357 349 345 344 339 332 328 335 343 345 344 334 322 300 264 238 245 241 221 204 199 191 179 167
202 213 216 211 216 225 242 256 261 267 279 278 281 289 293 301 312 319 332 348 346 341 338 342 344 337 337 354 359 340 327 322 310 297 273 265 255 229 195 168 168 172 200
212 215 215 211 212 224 236 246 248 247 263 281 287 283 275 282 294 303 311 341 333 328 331 335 343 344 340 348 346 333 325 317 319 323 327 329 304 236 202 192 187 186 180
212 208 213 218 221 228 238 243 249 259 279 291 293 291 282 275 285 287 275 218 257 301 315 319 321 333 337 335 331 305 298 306 311 318 324 335 342 307 231 204 191 187 190
207 213 229 236 237 233 232 251 253 256 276 288 297 300 291 283 274 278 269 244 225 245 282 291 301 318 325 327 324 314 317 328 327 330 323 318 305 281 255 220 204 207 214
205 236 254 263 261 252 239 250 259 253 254 272 277 284 290 287 279 274 271 260 248 239 266 282 300 314 321 320 316 319 326 329 318 303 284 280 273 260 247 236 225 225 249
197 260 278 287 294 288 265 249 247 252 253 262 264 266 275 284 276 267 264 265 267 272 287 301 311 315 313 301 307 314 311 283 268 264 262 266 280 280 252 224 219 225 244
27 328 318 308 304 307 299 265 249 245 235 240 253 250 253 273 268 235 216 228 231 249 286 316 325 326 325 320 314 304 296 295 280 265 252 256 255 252 249 229 211 205 216
59 14 351 335 329 325 320 321 303 290 311 300 287 279 264 261 276 259 238 237 239 249 293 303 305 304 301 301 302 303 293 277 264 255 251 245 244 243 246 237 219 215 227
63 29 11 10 7 1 1 360 350 354 11 16 7 358 340 320 309 286 263 257 278 300 310 298 298 298 297 296 292 286 284 279 267 253 248 245 241 242 240 239 232 226 232
55 46 46 32 24 22 21 21 25 24 18 9 5 11 11 11 14 12 14 43 8 13 320 304 304 303 300 299 296 291 287 287 279 265 255 248 239 236 239 240 234 229 230
53 47 46 42 38 37 37 40 42 42 39 24 17 15 15 24 37 38 45 43 17 2 351 336 326 320 315 312 308 303 298 292 285 276 269 260 249 239 241 240 238 236 231
51 59 65 56 47 46 45 48 47 46 43 38 32 22 18 34 40 35 36 32 26 14 6 0 356 350 344 337 331 326 321 317 314 303 290 280 267 252 248 244 238 236 233
57 56 62 61 54 52 52 50 49 50 48 45 37 31 35 43 40 34 33 27 22 16 9 6 6 2 359 355 351 348 347 345 341 334 325 313 298 279 263 254 247 240 236
70 65 61 63 58 57 56 51 53 54 52 50 38 35 39 45 41 37 30 23 15 9 3 3 4 2 1 2 2 1 359 354 348 340 330 322 314 303 288 270 258 251 242
78 75 70 65 65 63 59 51 50 50 46 43 40 34 32 32 28 25 19 9 2 359 359 360 356 356 355 356 1 3 359 350 340 332 328 320 314 308 302 291 277 263 251
82 83 82 74 69 65 61 53 48 46 43 38 35 31 23 16 11 8 4 356 352 347 348 346 342 342 342 342 340 343 342 337 336 332 325 316 310 304 302 299 290 279 269
86 90 91 88 80 73 66 59 51 45 38 33 28 20 9 5 0 355 349 345 343 340 337 334 331 332 331 331 331 330 328 328 328 328 322 315 310 304 299 296 294 291 280
94 101 105 105 96 84 76 66 50 37 25 13 4 355 348 345 342 340 339 338 337 333 330 327 326 325 321 322 323 323 322 320 319 319 316 309 306 303 303 297 292 288 284
Height
1508 1506 1504 1503 1501 1498 1496 1494 1491 1489 1486 1484 1482 1480 1479 1477 1476 1475 1474 1473 1472 1471 1471 1471 1471 1471 1472 1472 1473 1474 1475 1476 1476 1477 1479 1480 1482 1484 1486 1487 1489 1492 1495
1508 1506 1504 1503 1501 1499 1496 1494 1492 1490 1487 1485 1483 1481 1479 1477 1476 1474 1473 1472 1471 1470 1470 1470 1469 1469 1469 1470 1470 1471 1471 1472 1473 1473 1474 1476 1478 1480 1481 1483 1484 1486 1489
1507 1506 1504 1503 1501 1499 1496 1494 1492 1490 1488 1486 1483 1481 1479 1477 1476 1474 1473 1471 1470 1469 1469 1468 1468 1468 1467 1467 1468 1468 1468 1468 1469 1469 1470 1472 1473 1475 1477 1479 1481 1482 1484
1507 1506 1504 1502 1501 1499 1497 1495 1493 1491 1489 1486 1484 1482 1480 1478 1476 1475 1473 1471 1470 1469 1468 1467 1467 1466 1466 1465 1465 1465 1465 1465 1466 1466 1466 1468 1469 1471 1473 1475 1476 1478 1479
1506 1505 1504 1502 1501 1499 1497 1495 1493 1491 1489 1487 1485 1483 1481 1479 1477 1475 1473 1472 1470 1469 1468 1467 1466 1465 1464 1463 1463 1462 1462 1462 1462 1463 1463 1464 1466 1467 1469 1471 1472 1474 1475
1505 1504 1503 1502 1500 1499 1497 1495 1493 1491 1489 1487 1485 1483 1481 1479 1478 1476 1474 1472 1470 1468 1467 1466 1465 1464 1463 1461 1461 1460 1460 1460 1459 1460 1460 1461 1462 1464 1465 1467 1468 1469 1471
1504 1504 1503 1501 1500 1498 1497 1495 1493 1491 1489 1487 1485 1483 1481 1480 1478 1476 1474 1472 1470 1468 1467 1465 1464 1463 1461 1460 1459 1459 1458 1458 1458 1457 1457 1458 1459 1460 1461 1463 1464 1465 1466
1503 1502 1502 1500 1499 1498 1496 1495 1493 1491 1489 1487 1485 1484 1482 1480 1478 1476 1474 1472 1470 1468 1467 1465 1463 1462 1460 1459 1458 1457 1456 1455 1455 1454 1455 1455 1455 1456 1457 1459 1460 1461 1463
1502 1501 1500 1499 1498 1497 1496 1494 1492 1491 1489 1487 1485 1484 1482 1480 1478 1476 1474 1472 1470 1468 1466 1465 1463 1461 1460 1458 1457 1456 1455 1454 1453 1452 1452 1451 1452 1452 1453 1455 1456 1457 1458
1500 1500 1499 1498 1497 1496 1495 1493 1492 1490 1489 1487 1485 1483 1481 1479 1478 1476 1474 1472 1470 1468 1466 1464 1463 1461 1459 1458 1456 1455 1453 1452 1451 1450 1450 1449 1449 1449 1450 1451 1453 1454 1455
1498 1498 1497 1496 1495 1494 1493 1492 1491 1489 1488 1486 1484 1483 1481 1479 1477 1475 1473 1471 1469 1468 1466 1464 1462 1461 1459 1457 1456 1454 1453 1451 1449 1449 1448 1447 1447 1447 1448 1448 1449 1451 1452
1496 1496 1495 1495 1494 1493 1491 1490 1489 1487 1486 1484 1483 1481 1479 1478 1476 1474 1472 1470 1469 1467 1465 1463 1462 1460 1458 1456 1455 1454 1452 1450 1449 1448 1447 1446 1446 1446 1446 1446 1447 1448 1449
1494 1493 1493 1492 1491 1490 1489 1488 1487 1485 1484 1482 1480 1479 1477 1476 1474 1472 1470 1469 1467 1465 1464 1462 1460 1458 1457 1455 1454 1453 1451 1450 1448 1447 1446 1445 1445 1445 1445 1445 1445 1445 1446
1491 1491 1490 1489 1488 1487 1486 1485 1483 1482 1481 1479 1478 1476 1475 1473 1472 1470 1468 1467 1465 1464 1462 1460 1459 1457 1455 1454 1452 1451 1450 1449 1448 1446 1445 1445 1444 1443 1443 1443 1443 1443 1443
1488 1487 1487 1486 1485 1483 1482 1482 1480 1479 1478 1476 1475 1473 1472 1470 1469 1468 1466 1464 1463 1462 1460 1458 1457 1455 1454 1452 1451 1449 1448 1447 1446 1445 1444 1443 1443 1442 1441 1441 1441 1440 1440
1485 1484 1483 1482 1481 1480 1479 1478 1477 1476 1474 1473 1471 1470 1468 1467 1466 1464 1463 1462 1461 1459 1458 1456 1454 1453 1451 1450 1448 1447 1446 1445 1444 1443 1442 1441 1441 1440 1439 1439 1438 1438 1437
1482 1481 1480 1479 1478 1476 1475 1474 1473 1472 1471 1469 1468 1466 1465 1463 1462 1461 1460 1459 1458 1456 1455 1454 1452 1450 1449 1447 1445 1444 1443 1442 1441 1440 1439 1438 1438 1437 1436 1436 1435 1435 1434
1479 1478 1477 1476 1475 1474 1472 1471 1470 1468 1467 1466 1465 1463 1462 1460 1459 1457 1456 1456 1454 1453 1452 1450 1449 1447 1446 1444 1442 1441 1439 1438 1438 1437 1436 1435 1434 1433 1432 1432 1431 1431 1430
1477 1476 1475 1474 1473 1472 1471 1469 1468 1466 1465 1464 1462 1461 1460 1458 1456 1455 1453 1452 1451 1450 1449 1447 1446 1444 1442 1440 1439 1437 1436 1434 1433 1432 1431 1431 1430 1429 1428 1427 1427 1426 1426
1475 1474 1474 1473 1472 1470 1469 1468 1466 1465 1463 1462 1460 1459 1458 1456 1454 1452 1451 1450 1449 1447 1446 1444 1443 1441 1439 1437 1435 1433 1432 1430 1429 1427 1426 1426 1425 1424 1423 1422 1422 1421 1421
1474 1473 1472 1471 1470 1469 1468 1467 1466 1464 1463 1461 1460 1459 1457 1455 1453 1452 1450 1449 1447 1446 1444 1442 1440 1438 1436 1434 1431 1429 1428 1426 1424 1422 1421 1420 1419 1418 1417 1416 1416 1415 1415
1473 1472 1471 1471 1470 1469 1468 1467 1466 1464 1463 1462 1460 1459 1457 1455 1453 1452 1450 1448 1447 1445 1443 1440 1438 1435 1433 1430 1428 1425 1423 1421 1419 1417 1415 1414 1413 1411 1410 1409 1409 1408 1408
1472 1471 1471 1470 1470 1469 1468 1467 1466 1464 1463 1461 1460 1458 1456 1454 1453 1451 1449 1447 1445 1443 1441 1438 1435 1433 1430 1428 1425 1422 1419 1416 1414 1412 1410 1408 1406 1404 1403 1402 1401 1401 1400
1471 1470 1470 1470 1469 1468 1467 1466 1465 1464 1462 1461 1459 1458 1456 1454 1452 1450 1448 1446 1443 1441 1438 1436 1433 1430 1427 1424 1421 1418 1415 1412 1409 1407 1404 1402 1400 1398 1396 1395 1393 1393 1392
1470 1470 1469 1469 1468 1467 1466 1465 1464 1463 1461 1460 1458 1456 1454 1452 1450 1448 1445 1443 1440 1438 1435 1432 1429 1426 1422 1419 1416 1413 1410 1407 1404 1401 1398 1395 1393 1391 1389 1387 1385 1384 1384
1469 1468 1468 1468 1467 1466 1465 1464 1463 1461 1460 1458 1456 1454 1452 1450 1447 1445 1442 1439 1436 1433 1430 1427 1424 1420 1417 1414 1410 1407 1403 1400 1397 1394 1391 1388 1385 1382 1380 1378 1377 1375 1374